Location: Alladorf
(49.9620°N, 11.3790°E)
Time: 02:27:53
(UTC+00:00)

Daily predictions for brighter satellites

Satellite Brightness Start Highest point End
(mag) Time Altitude Azimuth Time Altitude Azimuth Time Altitude Azimuth
CENTAUR R/B 4.1 02:14:21 42° ESE 02:14:21 42° ESE 02:19:51 10° SE
Lacrosse 5 4.2 02:52:48 19° ESE 02:52:48 19° ESE 02:55:35 10° E
Cosmos 2263 Rocket 3.4 03:01:26 39° ENE 03:01:26 39° ENE 03:05:39 10° NE
SJ 16-02 3.7 03:08:47 22° E 03:08:47 22° E 03:11:36 10° NE
CZ-4C R/B 4.1 03:25:49 12° SSE 03:29:13 24° ESE 03:33:40 10° ENE
COSMO-SKYMED 1 4.3 03:26:26 10° SE 03:30:12 30° ENE 03:30:47 29° NE
BREEZE-M DEB (TANK) 4.3 03:30:33 74° WSW 03:31:07 79° SSW 03:35:22 10° ESE
ATLAS 3B R/B 3.0 03:30:35 52° N 03:32:01 62° NE 03:39:05 10° ESE
Cosmos 1943 4.4 03:36:00 32° SSE 03:36:00 32° SSE 03:38:59 10° SSE
Lacrosse 4 Rocket 3.6 03:38:11 21° SSE 03:38:11 21° SSE 03:39:40 10° SSE
EXPRESS MD2 4.3 03:53:25 45° E 03:53:25 45° E 03:57:25 10° E
ALOS 2.4 03:48:40 10° NNE 03:53:16 70° E 03:53:16 70° E
Cosmos 923 Rocket 3.9 03:53:37 86° E 03:53:37 86° E 03:58:53 10° SSE
Cosmos 2227 Rocket 4.1 03:57:13 17° N 03:57:13 17° N 03:59:06 10° N
METEOR-M 4.5 03:52:43 10° NNE 03:58:03 64° ESE 04:03:21 10° S
Cosmos 2344 4.3 03:53:01 31° NW 03:58:20 81° NE 04:11:02 10° SE
NOSS 3-2 (C) 4.4 04:00:07 43° SW 04:00:07 43° SW 04:07:42 10° S
Cosmos 2227 4.1 04:01:37 70° NW 04:01:37 70° NW 04:07:05 10° NNE
CENTAUR R/B 3.5 04:01:35 44° WSW 04:01:47 44° WSW 04:09:58 10° S
USA 305 3.8 04:02:46 43° NNE 04:02:46 43° NNE 04:06:11 10° ENE
NOSS 3-4 (A) 3.4 04:00:50 46° SSW 04:02:43 81° SE 04:09:07 10° NE
NOSS 3-4 (C) 3.4 04:00:54 46° SSW 04:02:50 81° SE 04:09:16 10° NE
ARGOS Delta rocket 3.8 03:59:13 10° N 04:04:26 83° WNW 04:04:43 78° SW
Meteor 1-31 Rocket 3.6 04:02:12 10° NNE 04:05:08 45° NE 04:05:08 45° NE
Cosmos 158 Rocket 3.8 04:10:38 68° SW 04:10:38 68° SW 04:15:14 10° SSE
USA 306 3.6 04:10:52 46° NNE 04:10:52 46° NNE 04:14:38 10° ENE
Cosmos 1515 Rocket 4.0 04:09:36 29° N 04:11:47 63° ENE 04:16:13 10° SSE
SL-4 R/B 2.3 04:15:03 57° NE 04:15:03 57° NE 04:18:10 10° ENE
Cosmos 1151 Rocket 4.3 04:17:01 28° S 04:17:01 28° S 04:19:05 10° S
Cosmos 1782 2.8 04:16:34 77° SE 04:16:34 77° SE 04:20:21 10° S
PSLV R/B 4.4 04:13:28 10° SSE 04:17:32 61° ENE 04:19:24 30° N
SKYMED 2 3.5 04:13:47 10° SSE 04:18:07 82° ENE 04:19:24 46° N
Cosmos 1844 Rocket 4.0 04:13:28 10° S 04:18:42 41° ESE 04:24:00 10° NE
Cosmos 1680 Rocket 3.4 04:20:02 48° NW 04:21:32 75° WSW 04:26:49 10° SSE
SJ-12 4.2 04:18:21 10° NNE 04:22:24 65° ESE 04:26:25 10° S
ATLAS 2AS CENTAUR R/B 3.0 04:15:31 15° SW 04:22:27 86° SE 04:30:20 10° NE
FALCON 9 DEB 4.1 04:24:40 40° SE 04:24:40 40° SE 04:27:33 10° ENE
FALCON 9 DEB 4.0 04:26:37 44° NNE 04:26:37 44° NNE 04:29:30 10° ENE
Cosmos 2297 Rocket 4.1 04:30:30 14° NNW 04:30:30 14° NNW 04:32:29 10° N
ATLAS 5 CENTAUR R/B 2.9 04:31:19 31° N 04:31:19 31° N 04:33:00 10° NNE
ATLAS CENTAUR R/B 0.9 04:32:06 79° WNW 04:32:19 87° SW 04:36:13 10° SE
RESURS DK-1 3.1 04:28:44 10° SSW 04:32:46 53° ESE 04:36:51 10° NE
ADEOS 3.5 04:27:56 10° N 04:33:07 65° WNW 04:38:17 10° SSW
CRYOSAT 2 4.2 04:28:30 10° S 04:33:20 71° W 04:38:14 10° N
Lacrosse 5 1.9 04:32:03 33° SW 04:34:20 80° SE 04:39:25 10° ENE
Cosmos 1328 Rocket 4.0 04:35:39 42° SW 04:35:39 42° SW 04:39:04 10° SSW
Meteor PRIRODA 4.1 04:31:38 10° NNE 04:35:21 61° ESE 04:39:03 10° S
Meteor 2-6 Rocket 4.2 04:31:05 10° N 04:36:30 76° ENE 04:41:57 10° SSE
Cosmos 1500 Rocket 4.3 04:33:05 10° S 04:37:17 54° E 04:41:32 10° NNE
ERBS 3.7 04:38:12 28° NNE 04:38:12 28° NNE 04:40:26 10° NE
H-2A R/B 4.0 04:35:28 10° NNE 04:39:14 43° E 04:42:56 10° S
Cosmos 1437 Rocket 4.1 04:36:56 10° N 04:40:30 37° ENE 04:44:01 10° SE
Cosmos 2112 Rocket 4.0 04:38:54 32° NW 04:41:16 61° WSW 04:46:31 10° S
Gbstr 26 Del rocket 3.3 04:43:34 37° SW 04:43:46 38° SSW 04:47:23 10° SE
Cosmos 2263 Rocket 2.7 04:43:11 36° WNW 04:44:17 39° NW 04:49:39 10° NNE
SJ 16-02 1.6 04:45:52 43° W 04:46:25 46° WNW 04:50:42 10° NNE
Nadezhda 3 Rocket 4.2 04:42:34 10° N 04:48:55 72° E 04:55:08 10° SSE
Cosmos 1898 Rocket 3.5 04:48:35 10° SSW 04:53:54 87° WNW 04:59:18 10° NNE
CZ-2C R/B 3.9 04:51:01 10° SE 04:56:04 40° ENE 05:01:02 10° N
Cosmos 1766 Rocket 4.4 04:58:04 30° NW 04:58:04 30° NW 05:01:26 10° N
FALCON 9 DEB 3.2 04:56:35 36° SW 04:57:42 66° SSE 05:00:55 10° ENE
FALCON 9 DEB 3.1 04:56:45 38° SW 04:57:48 69° SSE 05:01:01 10° ENE
FENGYUN 3A 4.1 04:52:53 10° N 04:57:53 38° WNW 05:02:49 10° SW
Envisat 3.9 04:53:26 10° NNE 04:58:25 50° E 05:03:20 10° S
Cosmos 1743 Rocket 3.5 04:56:45 10° S 05:01:12 86° W 05:05:43 10° N
H-2A R/B 3.8 04:58:13 10° NNE 05:01:52 39° E 05:05:28 10° S
Cosmos 1408 Rocket 3.8 04:59:00 10° SSW 05:03:17 46° WNW 05:07:36 10° N
Cosmos 2181 Rocket 4.4 04:57:46 10° NNW 05:03:20 36° W 05:08:51 10° SSW
Cosmos 2082 Rocket 3.9 04:58:48 10° NNW 05:03:38 27° NE 05:08:27 10° E
COSMO-SKYMED 1 3.2 05:02:21 10° SSW 05:06:18 34° W 05:07:59 25° NW
USA 307 3.3 05:05:08 28° NW 05:07:10 54° N 05:11:24 10° E
Cosmos 1937 Rocket 3.4 05:05:50 10° SSW 05:10:59 85° WNW 05:16:14 10° NNE
Lacrosse 4 Rocket 3.6 05:14:32 12° WSW 05:14:32 12° WSW 05:15:16 10° SW
USA 308 3.2 05:11:14 25° WNW 05:13:32 56° NNE 05:17:47 10° E
Cosmos 1833 Rocket 3.6 05:08:48 10° NNW 05:14:14 45° NE 05:19:37 10° SE
Meteor 2-3 Rocket 4.3 05:10:24 10° SW 05:15:37 35° WNW 05:20:54 10° N
MOS 1 Rocket 3.4 05:11:48 10° S 05:16:37 67° W 05:21:46 10° NNW
CZ-4B R/B 3.3 05:12:19 10° N 05:16:40 48° WNW 05:20:54 10° SW
CZ-4C R/B 2.1 05:11:51 10° SW 05:16:58 71° NW 05:23:12 10° NE
Cosmos 2154 Rocket 4.0 05:10:52 10° S 05:17:06 87° W 05:23:26 10° N
Meteor 1-27 Rocket 3.9 05:12:15 10° N 05:18:02 83° ENE 05:23:55 10° SSE
Cosmos 1689 Rocket 3.9 05:17:04 10° SSW 05:18:12 17° SW 05:18:12 17° SW
Meteor 1-10 Rocket 4.2 05:14:32 10° NNW 05:20:02 62° W 05:25:33 10° S
Cosmos 1805 Rocket 3.7 05:15:57 10° S 05:20:23 78° E 05:24:53 10° NNE
FALCON 9 DEB 2.9 05:18:33 21° WSW 05:20:32 89° SSE 05:23:47 10° ENE
ATLAS 3B R/B 3.3 05:17:51 18° WNW 05:22:32 40° WSW 05:29:06 10° S
COSMOS 2406 3.7 05:18:40 10° NNW 05:24:23 63° ENE 05:30:06 10° SE
Aureole 2 Rocket 1.5 05:22:16 10° SSW 05:24:48 87° ESE 05:27:23 10° NNE
Cosmos 1048 Rocket 4.4 05:21:25 10° NNW 05:26:43 67° ENE 05:31:54 10° SSE
YAOGAN 6 2.4 05:23:59 10° NNE 05:27:31 89° WNW 05:31:00 10° SSW
Cosmos 1862 3.4 05:24:02 10° SSW 05:28:00 52° WNW 05:31:59 10° N
Genesis I 3.2 05:25:50 10° SW 05:29:37 59° NW 05:33:27 10° NE
ALOS 3.6 05:27:05 10° NNW 05:30:16 19° WNW 05:31:45 16° W
Cosmos 2341 Rocket 4.3 05:26:57 10° S 05:33:05 71° E 05:39:18 10° NNE
Cosmos 2278 Rocket 4.2 05:29:13 10° SSE 05:34:11 33° ESE 05:39:13 10° NE
PSLV R/B 3.7 05:32:27 10° N 05:36:18 58° WNW 05:40:01 10° SSW
Cosmos 2327 Rocket 4.4 05:30:33 10° SSW 05:36:35 62° WNW 05:42:38 10° N
Cosmos 990 Rocket 4.5 05:31:57 10° SW 05:36:50 39° WNW 05:41:46 10° NNE
Cosmos 2074 Rocket 4.3 05:32:16 10° SW 05:38:07 43° WNW 05:44:02 10° N
Meteor 1-31 Rocket 4.3 05:37:41 10° NNW 05:40:00 16° WNW 05:40:29 15° WNW
USA 305 3.1 05:38:55 15° WNW 05:42:24 68° NNE 05:46:42 10° ESE
BREEZE M DEB (TANK) 3.6 05:37:07 10° SW 05:43:00 40° SSE 05:45:28 10° E
Cosmos 405 Rocket 3.1 05:40:25 10° SW 05:43:53 38° WNW 05:47:26 10° N
SL-24 DEB 4.4 05:39:13 10° S 05:43:54 57° W 05:48:38 10° NNW
NOAA 12 4.4 05:40:01 10° NNE 05:45:20 72° ESE 05:50:34 10° S
Cosmos 1812 3.7 05:43:08 10° NNW 05:46:22 26° W 05:49:34 10° SSW
Cosmos 2228 Rocket 3.9 05:45:01 10° NNW 05:48:52 30° W 05:52:41 10° SSW
Cosmos 1295 Rocket 4.4 05:43:31 10° SSW 05:49:32 63° WNW 05:55:36 10° N
USA 306 3.0 05:47:01 13° WNW 05:50:51 73° NNE 05:55:09 10° ESE
Cosmos 1633 Rocket 3.5 05:49:33 10° S 05:53:57 70° E 05:58:22 10° NNE
SL-4 R/B 1.7 05:50:37 12° WNW 05:54:11 80° NNE 05:57:46 10° E
NOSS 3-4 (A) 4.2 05:48:43 10° W 05:54:16 35° NNW 06:00:18 10° NE
NOSS 3-4 (C) 4.2 05:48:50 10° W 05:54:23 35° NNW 06:00:26 10° NE
USA 234 3.8 05:50:22 10° ENE 05:56:54 66° SE 06:03:24 10° SW
Cosmos 1356 3.3 05:56:03 10° SSW 05:59:28 74° WNW 06:02:54 10° N
FALCON 9 DEB 3.1 05:57:15 10° W 06:00:26 58° NNW 06:03:36 10° ENE
Cosmos 1844 Rocket 3.1 05:57:17 10° WSW 06:02:38 41° NW 06:08:01 10° NNE
FALCON 9 DEB 3.1 05:59:52 10° WNW 06:03:19 85° NNE 06:06:48 10° ESE
Cosmos 1707 Rocket 3.8 06:01:51 10° NNW 06:06:02 47° W 06:10:11 10° SSW
MOS 1-B 4.4 06:01:41 10° N 06:07:25 60° WNW 06:13:07 10° SW
NOAA 6 4.3 06:05:40 10° N 06:10:34 47° WNW 06:15:27 10° SW
ATLAS CENTAUR R/B 3.3 06:09:31 10° W 06:10:36 11° WSW 06:11:42 10° SW
COSMOS 2455 2.9 06:04:41 10° SW 06:10:43 74° NW 06:16:48 10° NE
RESURS DK-1 3.5 06:07:43 10° W 06:11:06 23° NW 06:14:30 10° N
BREEZE-M (TANK) 4.2 06:06:45 10° SW 06:11:38 30° SSE 06:13:52 10° E
H-2A R/B 4.1 06:10:12 10° NNW 06:13:08 20° WNW 06:16:02 10° WSW
ATLAS 2AS CENTAUR R/B 3.5 06:06:52 10° W 06:14:17 41° NNW 06:21:29 10° NE
ERBS 3.8 06:11:34 10° NW 06:14:19 24° N 06:17:04 10° ENE
USA 290 3.3 06:12:06 10° NNW 06:15:17 44° ENE 06:18:26 10° SE
Cosmos 1844 4.1 06:11:20 10° WSW 06:16:33 40° NW 06:21:49 10° NNE
